VE3BAY Weather Reports


Display with metric or nautical units.
time (UTC)temp
F
wind
direction
speed
MPH
gust
MPH
rain 1hr
in
rain 24hr
in
rain mn
in
humidity
%
barometer
mb
20190618070825 63 0 0.0 0.0 80.59 0.00 0.00 90 1016.2
20190618053824 63 0 0.0 0.0 80.59 0.00 0.00 91 1016.9
20190618045324 63 0 0.0 0.0 80.59 0.00 0.00 91 1016.9
20190618042324 63 0 0.0 0.0 80.59 0.00 0.00 91 1016.8
20190618035433 63 0 0.0 0.0 80.59 0.00 0.00 91 1017.0
20190618035324 63 0 0.0 0.0 80.59 0.00 0.00 91 1017.0
20190618032325 63 0 0.0 0.0 80.59 0.00 0.00 91 1017.2
20190618030309 63 0 0.0 0.0 80.59 0.00 0.00 93 1017.4
20190618025324 63 0 0.0 0.0 80.59 0.00 0.00 93 1017.4
20190618022324 63 0 0.0 0.0 80.59 0.00 0.00 94 1017.3
20190618020824 62 0 0.0 0.0 80.59 0.00 0.00 94 1017.2
20190618015324 62 0 0.0 0.0 80.59 0.00 0.00 95 1017.2
20190618013824 62 0 0.0 0.0 80.59 0.00 0.00 95 1017.1
20190618012415 62 0 0.0 0.0 80.59 0.00 0.00 95 1017.1
20190618012324 62 0 0.0 0.0 80.59 0.00 0.00 95 1017.1
20190618010824 62 0 0.0 0.0 80.59 0.00 0.00 95 1017.2
20190618005325 62 0 0.0 0.0 80.59 0.00 0.00 94 1017.2
20190618002324 63 0 0.0 0.0 80.59 0.00 0.00 94 1017.0
20190617235326 63 0 0.0 0.0 80.59 0.00 0.00 93 1016.7
20190617234657 63 0 0.0 0.0 80.59 0.00 0.00 93 1016.8
20190617233824 63 0 0.0 0.0 80.59 0.00 0.00 93 1016.8
20190617232324 63 0 0.0 0.0 80.59 0.00 0.00 92 1016.6
20190617230831 64 0 0.0 0.0 80.59 0.00 0.00 92 1016.6
20190617225324 64 0 0.0 0.0 80.59 0.00 0.00 91 1016.7
20190617223824 65 0 0.0 0.0 80.59 0.00 0.00 90 1016.5
20190617222325 65 0 0.0 0.0 80.59 0.00 0.00 90 1016.7
20190617220824 65 0 0.0 0.0 80.59 0.00 0.00 89 1016.8
20190617213825 68 0 0.0 0.0 80.59 0.00 0.00 82 1016.8
20190617212326 69 0 0.0 0.0 80.59 0.00 0.00 78 1017.0
20190617185326 69 0 0.0 0.0 80.59 0.00 0.00 79 1017.5
20190617153825 63 0 0.0 0.0 80.59 0.00 0.00 85 1017.5
20190617145326 63 0 0.0 0.0 80.59 0.00 0.00 85 1017.5
20190617140825 62 0 0.0 0.0 80.59 0.00 0.00 88 1017.3
20190617133825 61 0 0.0 0.0 80.59 0.00 0.00 88 1017.0
20190617123825 60 0 0.0 0.0 80.59 0.00 0.00 91 1017.2
20190617102325 58 0 0.0 0.0 80.59 0.00 0.00 94 1016.7
20190617095327 58 0 0.0 0.0 80.59 0.00 0.00 94 1016.6
20190617093826 58 0 0.0 0.0 80.59 0.00 0.00 93 1016.2
20190617090825 58 0 0.0 0.0 80.59 0.00 0.00 93 1016.0
20190617085326 58 0 0.0 0.0 80.59 0.00 0.00 93 1015.9
20190617083825 58 0 0.0 0.0 80.59 0.00 0.00 93 1016.0
20190617082327 59 0 0.0 0.0 80.59 0.00 0.00 93 1015.7
20190617080825 59 0 0.0 0.0 80.59 0.00 0.00 93 1015.9
20190617075325 59 0 0.0 0.0 80.59 0.00 0.00 93 1015.8
20190617072325 59 0 0.0 0.0 80.59 0.00 0.00 92 1015.6